Location: Unspecified
(0.0000°N, 0.0000°E)
Time: 09:10:45
(UTC+00:00)

SR - Pass Details

Date: 15 December 2018
Orbit: 584 x 872 km, 66.7° (Epoch: 23 March)

Event Time Altitude Azimuth Distance (km) Brightness Sun altitude
Rises 11:22:46 0° 16° (NNE) 2,825 ? 65.4°
Reaches altitude 10° 11:26:42 10° 52° (NE) 1,901 ? 65.7°
Maximum altitude 11:27:55 11° 69° (ENE) 1,829 ? 65.8°
Drops below altitude 10° 11:29:08 10° 86° (E) 1,897 ? 65.9°
Sets 11:33:00 0° 122° (ESE) 2,807 ? 66.1°
